Погода в Элдорете

Кения     0°30′24″N   35°16′23″E
темп.,
°C
ветер,
м/с
пор.,
м/с
влажн.,
%
обл.,
%
осадки,
мм/ч
давл.,
гПа
погр.,
м
19 мая, ср
ср1900:00+14ююв1185100 0.0 101711
03:00+13вюв118582 0.0 101610
06:00+13в118486 0.0 101711
09:00+19св236758 0.0 1017477
12:00+23всв4548100 0.0 10141791
15:00+23всв5544100 0.0 10121726
18:00+18всв3569100 0.0 1014102
21:00+15в1173100 0.1 101612
20 мая, чт
чт2000:00+14всв1280100 0.0 101714
03:00+13всв118697 0.0 101711
06:00+12всв1191100 0.0 101811
09:00+18с127575 0.0 1018485
12:00+23св254895 0.0 10151915
15:00+23всв554337 0.0 10121931
18:00+19ссв237141 0.3 101450
21:00+16ююз017756 0.5 101715
21 мая, пт
пт2100:00+14юв11859 0.1 101711
03:00+13всв118562 0.1 101611
06:00+13в228890 0.0 101711
09:00+18св24715 0.0 1018572
12:00+23св4648100 0.0 10151843
15:00+22св445698 0.0 1013947
18:00+18ссв347396 0.3 101597
21:00+17всв117670 0.4 101614
22 мая, сб
сб2200:00+14юв228499 0.1 101819
03:00+13в118692 0.1 101611
06:00+13в118899 0.0 101711
09:00+18ссв22727 0.0 1018496
12:00+23ссв234883 0.0 10151803
15:00+24всв4342100 0.0 10121963
18:00+17сз348219 0.4 1015159
21:00+14юв2289100 0.6 101720
23 мая, вс
вс2300:00+14юв1186100 0.0 101711
03:00+13юв22876 0.0 101511
06:00+13в22872 0.0 101612
09:00+19ссв11700 0.0 1017449
12:00+23ссз23470 0.0 10142069
15:00+25ссв233918 0.0 10112476
18:00+17зсз258188 0.8 1015184
21:00+16ю118497 1.4 101714